Blattenbach Aussen Messungen

Zurück zum Überblick

Zeitpunkt Temperatur Temperatur Kabelsensor Luftfeuchte
20.01.2019 22:40:23 1,0 C 2,8 C 66,0%
20.01.2019 22:33:23 1,0 C 2,8 C 66,0%
20.01.2019 22:26:23 0,9 C 2,8 C 66,0%
20.01.2019 22:19:24 0,9 C 2,8 C 66,0%
20.01.2019 22:12:24 0,9 C 2,8 C 65,0%
20.01.2019 22:05:25 0,9 C 2,8 C 66,0%
20.01.2019 21:58:23 0,9 C 2,8 C 67,0%
20.01.2019 21:51:23 0,9 C 2,8 C 67,0%
20.01.2019 21:44:22 1,0 C 2,8 C 67,0%
20.01.2019 21:37:27 1,0 C 2,8 C 67,0%
20.01.2019 21:30:26 1,1 C 2,8 C 66,0%
20.01.2019 21:23:25 1,1 C 2,8 C 67,0%
20.01.2019 21:16:22 1,1 C 2,8 C 66,0%
20.01.2019 21:09:22 1,1 C 2,8 C 67,0%
20.01.2019 21:02:22 1,1 C 2,8 C 67,0%
20.01.2019 20:55:26 1,1 C 2,8 C 66,0%
20.01.2019 20:48:23 1,1 C 2,8 C 66,0%
20.01.2019 20:41:23 1,2 C 2,9 C 65,0%
20.01.2019 20:34:23 1,3 C 2,9 C 65,0%
20.01.2019 20:27:24 1,2 C 2,9 C 64,0%
20.01.2019 20:20:24 1,3 C 3,0 C 63,0%
20.01.2019 20:13:23 1,3 C 3,0 C 63,0%
20.01.2019 20:06:26 1,3 C 2,8 C 63,0%
20.01.2019 19:59:25 1,3 C 2,7 C 62,0%
20.01.2019 19:52:24 1,3 C 2,7 C 63,0%
20.01.2019 19:45:26 1,3 C 2,7 C 63,0%
20.01.2019 19:38:23 1,3 C 2,7 C 64,0%
20.01.2019 19:31:23 1,3 C 2,7 C 64,0%
20.01.2019 19:24:23 1,2 C 2,7 C 64,0%
20.01.2019 19:17:22 1,2 C 2,8 C 66,0%
20.01.2019 19:10:25 1,2 C 2,8 C 66,0%
20.01.2019 19:03:24 1,2 C 2,8 C 66,0%
20.01.2019 18:56:22 1,2 C 2,8 C 67,0%
20.01.2019 18:49:23 1,3 C 2,8 C 67,0%
20.01.2019 18:42:26 1,3 C 2,8 C 66,0%
20.01.2019 18:35:23 1,3 C 2,8 C 66,0%
20.01.2019 18:28:24 1,3 C 2,8 C 66,0%
20.01.2019 18:21:26 1,4 C 2,8 C 67,0%
20.01.2019 18:14:25 1,5 C 2,7 C 66,0%
20.01.2019 18:07:21 1,4 C 2,7 C 66,0%
20.01.2019 18:00:24 1,4 C 2,7 C 66,0%
20.01.2019 17:53:24 1,4 C 2,7 C 66,0%
20.01.2019 17:46:22 1,6 C 2,7 C 66,0%
20.01.2019 17:39:25 1,7 C 2,7 C 65,0%
20.01.2019 17:32:26 1,7 C 2,7 C 65,0%
20.01.2019 17:25:23 1,8 C 2,7 C 65,0%
20.01.2019 17:18:25 1,9 C 2,7 C 66,0%
20.01.2019 17:11:22 2,0 C 2,7 C 65,0%
20.01.2019 17:04:21 2,1 C 2,7 C 64,0%
20.01.2019 16:57:21 2,2 C 2,7 C 65,0%